timestamp,surface_pressure_avg,surface_temp_avg,battery_voltage,lat,long
2021-09-12 00:09:01+00:00,236.3297,17.47,12.73,47.84626,-54.09684
2021-09-12 00:19:01+00:00,248.6464,17.4,12.73,47.84626,-54.09684
2021-09-12 00:29:01+00:00,253.2881,17.4,12.73,47.84626,-54.09684
2021-09-12 00:39:01+00:00,259.308,17.38,12.73,47.84626,-54.09684
2021-09-12 00:49:01+00:00,276.3997,17.38,12.73,47.84626,-54.09684
2021-09-12 00:59:01+00:00,292.2847,17.38,12.73,47.84626,-54.09684
2021-09-12 01:09:01+00:00,300.518,17.3,12.73,47.84626,-54.09684
2021-09-12 01:19:01+00:00,312.1296,17.21,12.73,47.84626,-54.09684
2021-09-12 01:29:01+00:00,332.963,17.26,12.73,47.84626,-54.09684
2021-09-12 01:39:01+00:00,346.5946,17.3,12.73,47.84626,-54.09684
2021-09-12 01:49:01+00:00,353.9729,17.33,12.73,47.84626,-54.09684
2021-09-12 01:59:01+00:00,369.9929,17.3,12.73,47.84626,-54.09684
2021-09-12 02:09:01+00:00,388.5362,17.32,12.73,47.84626,-54.09684
2021-09-12 02:19:00+00:00,395.093,17.4,12.73,47.84626,-54.09684
2021-09-12 02:29:00+00:00,395.2612,17.3,12.73,47.84626,-54.09684
2021-09-12 02:39:00+00:00,401.1596,17.3,12.73,47.84626,-54.09684
2021-09-12 02:49:00+00:00,410.2613,17.3,12.73,47.84626,-54.09684
2021-09-12 02:59:00+00:00,407.7645,17.3,12.73,47.84626,-54.09684
2021-09-12 03:09:00+00:00,397.0079,17.3,12.73,47.84626,-54.09684
2021-09-12 03:19:00+00:00,394.7679,17.3,12.73,47.84626,-54.09684
2021-09-12 03:29:00+00:00,393.2097,17.3,12.73,47.84626,-54.09684
2021-09-12 03:39:00+00:00,379.9747,17.3,12.73,47.84626,-54.09684
2021-09-12 03:49:00+00:00,366.8346,17.3,12.73,47.84626,-54.09684
2021-09-12 03:59:00+00:00,357.9497,17.3,12.73,47.84626,-54.09684
2021-09-12 04:09:00+00:00,347.8679,17.3,12.73,47.84626,-54.09684
2021-09-12 04:19:01+00:00,336.5096,17.39,12.73,47.84626,-54.09684
2021-09-12 04:29:01+00:00,326.9597,17.4,12.73,47.84626,-54.09684
2021-09-12 04:39:01+00:00,319.9496,17.28,12.73,47.84626,-54.09684
2021-09-12 04:49:01+00:00,307.8313,17.28,12.73,47.84626,-54.09684
2021-09-12 04:59:01+00:00,297.9264,17.41,12.73,47.84626,-54.09684
2021-09-12 05:09:01+00:00,292.4197,17.5,12.73,47.84626,-54.09684
2021-09-12 05:19:00+00:00,288.8497,17.5,12.73,47.84626,-54.09684
2021-09-12 05:29:00+00:00,282.5714,17.5,12.73,47.84626,-54.09684
2021-09-12 05:39:00+00:00,275.778,17.5,12.73,47.84626,-54.09684
2021-09-12 05:49:00+00:00,270.8498,17.66,12.73,47.84626,-54.09684
2021-09-12 05:59:00+00:00,269.2931,17.5,12.73,47.84626,-54.09684
2021-09-12 06:09:00+00:00,266.4114,17.4,12.73,47.84626,-54.09684
2021-09-12 06:19:00+00:00,260.7914,17.4,12.73,47.84626,-54.09684
2021-09-12 06:29:00+00:00,254.2614,17.42,12.73,47.84626,-54.09684
2021-09-12 06:39:00+00:00,249.0197,17.49,12.73,47.84626,-54.09684
2021-09-12 06:49:00+00:00,241.9047,17.5,12.73,47.84626,-54.09684
2021-09-12 06:59:00+00:00,233.7714,17.5,12.73,47.84626,-54.09684
2021-09-12 07:09:00+00:00,227.6781,17.5,12.73,47.84626,-54.09684
2021-09-12 07:19:01+00:00,223.9898,17.45,12.73,47.84626,-54.09684
2021-09-12 07:29:01+00:00,219.3847,17.4,12.73,47.84626,-54.09684
2021-09-12 07:39:01+00:00,215.5598,17.4,12.73,47.84626,-54.09684
2021-09-12 07:49:01+00:00,217.1681,17.3,12.73,47.84626,-54.09684
2021-09-12 07:59:01+00:00,214.1581,17.3,12.73,47.84626,-54.09684
2021-09-12 08:09:01+00:00,207.8814,17.33,12.73,47.84626,-54.09684
2021-09-12 08:19:00+00:00,210.1281,17.38,12.73,47.84626,-54.09684
2021-09-12 08:29:00+00:00,214.7181,17.39,12.73,47.84626,-54.09684
2021-09-12 08:39:00+00:00,212.5214,17.4,12.73,47.84626,-54.09684
2021-09-12 08:49:00+00:00,207.5731,17.4,12.73,47.84626,-54.09684
2021-09-12 08:59:00+00:00,212.7481,17.3,12.73,47.84626,-54.09684
2021-09-12 09:09:00+00:00,219.5981,17.2,12.73,47.84626,-54.09684
2021-09-12 09:19:01+00:00,216.5565,17.2,12.73,47.84626,-54.09684
2021-09-12 09:29:01+00:00,212.3414,17.29,12.73,47.84626,-54.09684
2021-09-12 09:39:01+00:00,218.458,17.3,12.73,47.84626,-54.09684
2021-09-12 09:49:01+00:00,223.9815,17.3,12.73,47.84626,-54.09684
2021-09-12 09:59:01+00:00,222.3264,17.3,12.73,47.84626,-54.09684
2021-09-12 10:09:01+00:00,220.3764,17.3,12.73,47.84626,-54.09684
2021-09-12 10:19:01+00:00,223.0048,17.3,13.53,47.84626,-54.09684
2021-09-12 10:29:01+00:00,224.2381,17.32,13.53,47.84626,-54.09684
2021-09-12 10:39:01+00:00,224.5198,17.35,13.53,47.84626,-54.09684
2021-09-12 10:49:01+00:00,228.6431,17.3,13.53,47.84626,-54.09684
2021-09-12 10:59:01+00:00,232.8581,17.3,13.53,47.84626,-54.09684
2021-09-12 11:09:01+00:00,235.7081,17.3,13.53,47.84626,-54.09684
2021-09-12 11:19:01+00:00,239.7481,17.29,14.24,47.84626,-54.09684
2021-09-12 11:29:01+00:00,244.6081,17.23,14.24,47.84626,-54.09684
2021-09-12 11:39:01+00:00,249.5347,17.23,14.24,47.84626,-54.09684
2021-09-12 11:49:01+00:00,257.0981,17.2,14.24,47.84626,-54.09684
2021-09-12 11:59:01+00:00,266.0947,17.13,14.24,47.84626,-54.09684
2021-09-12 12:09:01+00:00,271.4364,17.2,14.24,47.84626,-54.09684
2021-09-12 12:19:01+00:00,276.5081,17.1,14.4,47.84626,-54.09684
2021-09-12 12:29:01+00:00,286.0481,16.94,14.4,47.84626,-54.09684
2021-09-12 12:39:01+00:00,296.2414,16.9,14.4,47.84626,-54.09684
2021-09-12 12:49:01+00:00,298.5696,16.9,14.4,47.84626,-54.09684
2021-09-12 12:59:01+00:00,303.5714,16.98,14.4,47.84626,-54.09684
2021-09-12 13:09:01+00:00,318.2662,17.0,14.4,47.84626,-54.09684
2021-09-12 13:19:01+00:00,328.903,17.01,14.4,47.84626,-54.09684
2021-09-12 13:29:01+00:00,330.4213,17.09,14.4,47.84626,-54.09684
2021-09-12 13:39:01+00:00,336.9897,17.1,14.4,47.84626,-54.09684
2021-09-12 13:49:01+00:00,350.1779,16.97,14.4,47.84626,-54.09684
2021-09-12 13:59:01+00:00,356.8729,16.96,14.4,47.84626,-54.09684
2021-09-12 14:09:01+00:00,359.9028,16.9,14.4,47.84626,-54.09684
2021-09-12 14:19:01+00:00,366.9113,16.8,14.24,47.84626,-54.09684
2021-09-12 14:29:01+00:00,373.4696,16.8,14.24,47.84626,-54.09684
2021-09-12 14:39:01+00:00,375.3395,16.8,14.24,47.84626,-54.09684
2021-09-12 14:49:01+00:00,378.5311,16.78,14.24,47.84626,-54.09684
2021-09-12 14:59:01+00:00,381.7047,16.7,14.24,47.84626,-54.09684
2021-09-12 15:09:01+00:00,381.0796,16.7,14.24,47.84626,-54.09684
2021-09-12 15:19:01+00:00,383.5879,16.76,14.16,47.84626,-54.09684
2021-09-12 15:29:01+00:00,389.0797,16.62,14.16,47.84626,-54.09684
2021-09-12 15:39:01+00:00,388.5912,16.63,14.16,47.84626,-54.09684
2021-09-12 15:49:01+00:00,384.8863,16.7,14.16,47.84626,-54.09684
2021-09-12 15:59:01+00:00,386.5629,16.76,14.16,47.84626,-54.09684
2021-09-12 16:09:01+00:00,386.1596,16.7,14.16,47.84626,-54.09684
2021-09-12 16:19:01+00:00,375.9862,16.8,14.24,47.84626,-54.09684
2021-09-12 16:29:01+00:00,370.7029,16.8,14.24,47.84626,-54.09684
2021-09-12 16:39:01+00:00,374.3812,16.74,14.24,47.84626,-54.09684
2021-09-12 16:49:01+00:00,368.9646,16.88,14.24,47.84626,-54.09684
2021-09-12 16:59:01+00:00,360.3912,16.9,14.24,47.84626,-54.09684
2021-09-12 17:09:01+00:00,359.6812,16.79,14.24,47.84626,-54.09684
2021-09-12 17:19:01+00:00,361.9713,16.68,13.92,47.84626,-54.09684
2021-09-12 17:29:01+00:00,354.0463,16.68,13.92,47.84626,-54.09684
2021-09-12 17:39:01+00:00,345.1746,16.74,13.92,47.84626,-54.09684
2021-09-12 17:49:01+00:00,346.6845,16.8,13.92,47.84626,-54.09684
2021-09-12 17:59:01+00:00,343.2996,16.69,13.92,47.84626,-54.09684
2021-09-12 18:09:01+00:00,333.0663,16.73,13.92,47.84626,-54.09684
2021-09-12 18:19:01+00:00,328.6029,17.1,14.0,47.84626,-54.09684
2021-09-12 18:29:01+00:00,323.183,17.05,14.0,47.84626,-54.09684
2021-09-12 18:39:01+00:00,310.6846,16.99,14.0,47.84626,-54.09684
2021-09-12 18:49:01+00:00,299.1714,17.07,14.0,47.84626,-54.09684
2021-09-12 18:59:01+00:00,295.438,17.1,14.0,47.84626,-54.09684
2021-09-12 19:09:01+00:00,285.0597,17.21,14.0,47.84626,-54.09684
2021-09-12 19:19:01+00:00,268.5181,17.36,13.68,47.84626,-54.09684
2021-09-12 19:29:01+00:00,260.1331,17.4,13.68,47.84626,-54.09684
2021-09-12 19:39:01+00:00,251.5114,17.36,13.68,47.84626,-54.09684
2021-09-12 19:49:01+00:00,237.3948,17.5,13.68,47.84626,-54.09684
2021-09-12 19:59:01+00:00,226.2948,17.5,13.68,47.84626,-54.09684
2021-09-12 20:09:01+00:00,221.4497,17.5,13.68,47.84626,-54.09684
2021-09-12 20:19:01+00:00,217.3031,17.59,13.53,47.84626,-54.09684
2021-09-12 20:29:01+00:00,210.1414,17.64,13.53,47.84626,-54.09684
2021-09-12 20:39:01+00:00,203.3248,17.58,13.53,47.84626,-54.09684
2021-09-12 20:49:01+00:00,199.0415,17.6,13.53,47.84626,-54.09684
2021-09-12 20:59:01+00:00,197.4048,17.64,13.53,47.84626,-54.09684
2021-09-12 21:09:01+00:00,196.8214,17.7,13.53,47.84626,-54.09684
2021-09-12 21:19:01+00:00,195.0665,17.77,13.29,47.84626,-54.09684
2021-09-12 21:29:01+00:00,197.2997,17.79,13.29,47.84626,-54.09684
2021-09-12 21:39:01+00:00,203.9431,17.79,13.29,47.84626,-54.09684
2021-09-12 21:49:01+00:00,205.6214,17.79,13.29,47.84626,-54.09684
2021-09-12 21:59:01+00:00,207.4748,17.8,13.29,47.84626,-54.09684
2021-09-12 22:09:01+00:00,217.3347,17.8,13.29,47.84626,-54.09684
2021-09-12 22:19:01+00:00,225.2581,17.75,12.97,47.84626,-54.09684
2021-09-12 22:29:01+00:00,224.2631,17.78,12.97,47.84626,-54.09684
2021-09-12 22:39:01+00:00,224.9198,17.8,12.97,47.84626,-54.09684
2021-09-12 22:49:01+00:00,229.7181,17.73,12.97,47.84626,-54.09684
2021-09-12 22:59:01+00:00,232.3581,17.77,12.97,47.84626,-54.09684
2021-09-12 23:09:01+00:00,233.5497,17.73,12.97,47.84626,-54.09684
2021-09-12 23:19:01+00:00,232.9247,17.78,12.73,47.84626,-54.09684
2021-09-12 23:29:01+00:00,233.7481,17.79,12.73,47.84626,-54.09684
2021-09-12 23:39:01+00:00,234.8248,17.77,12.73,47.84626,-54.09684
2021-09-12 23:49:01+00:00,236.0714,17.74,12.73,47.84626,-54.09684
2021-09-12 23:59:01+00:00,238.4165,17.73,12.73,47.84626,-54.09684
